Location: Trebic
(49.2170°N, 15.8830°E)
Time: 08:44:48
(UTC+02:00)

Transit 4A - Pass Details

Date: 25 July 2019
Orbit: 863 x 981 km, 66.8° (Epoch: 21 August)

Event Time Altitude Azimuth Distance (km) Brightness Sun altitude
Exits shadow 00:21:42 19° 118° (ESE) 2,151 9.5 -20.4°
Maximum altitude 00:22:48 20° 104° (ESE) 2,110 9.5 -20.4°
Drops below altitude 10° 00:27:11 10° 61° (ENE) 2,740 10.6 -20.6°
Sets 00:30:27 0° 45° (NE) 3,691 11.5 -20.6°
